User: anonymous   Login
Location: Newark
(54.3386°S, 169.8415°W)
Time: 15:54:53
(UTC+00:00)
Language:

Vanguard 2 - Orbit

View from above orbital plane
View from above orbital plane
View from above satellite
View from above satellite

Ground track
Ground track

The orbit data is extracted from the following two-line orbital elements,

1    11U 59001A   19295.28798520  .00000181  00000-0  91755-4 0  9995
2    11  32.8701 233.3230 1466522 341.3360  13.8468 11.85615889588325
Epoch (UTC): 22 October 2019 06:54:41
Eccentricity: 0.1466522
inclination: 32.8701°
perigee height: 554 km
apogee height: 2937 km
right ascension of ascending node: 233.3230°
argument of perigee: 341.3360°
revolutions per day: 11.85615889
mean anomaly at epoch: 13.8468°
orbit number at epoch: 58832

The dashed part of the orbit path shows where the satellite is in the earth's shadow,  

DLR